1306627225124,47.3587
1306627285124,47.3875
1306627345124,47.2798
1306627405124,47.3583
1306627465124,47.3362
1306627525124,47.2119
1306627585124,47.4125
1306627645124,47.3221
1306627705124,47.3565
1306627765124,47.2940
1306627825124,47.5319
1306627885124,47.3645
1306627945124,47.4065
1306628005124,47.2734
1306628065124,47.4561
1306628125124,47.3934
1306628185124,47.8621
1306628245124,47.5812
1306628305124,47.5078
1306628365124,47.5762
1306628425124,47.4453
1306628485124,47.4687
1306628545124,47.4505
1306628605124,47.3685
1306628665124,47.6122
1306628725124,47.3878
1306628785124,47.3597
1306628845124,47.3509
1306628905124,47.3366
1306628965124,47.4958
1306629025124,47.4681
1306629085124,47.4543
1306629145124,47.4785
1306629205124,47.3178
1306629265124,47.4957
1306629325124,47.4763
1306629385124,47.4813
1306629445124,47.5536
1306629505124,47.6310
1306629565124,47.4822
1306629625124,47.5547
1306629685124,47.7374
1306629745124,47.4238
1306629805124,47.5579
1306629865124,47.5202
1306629925124,47.5474
1306629985124,47.6256
1306630045124,47.6794
1306630105124,47.6068
1306630165124,47.7341
1306630225124,47.5297
1306630285124,47.7934
1306630345124,47.7750
1306630405124,47.6464
1306630465124,47.7734
1306630525124,47.7392
1306630585124,47.8847
1306630645124,47.8169
1306630705124,47.9602
1306630765124,47.8538
1306630825134,48.0106
1306630885134,47.9490
1306630945134,47.9451
1306631005134,47.9397
1306631065134,48.0632
1306631125134,47.9024
1306631185134,47.9693
1306631245134,48.0536
1306631305134,47.9236
1306631365134,47.8222
1306631425134,48.0242
1306631485134,48.0872
1306631545134,47.9404
1306631605134,48.0469
1306631665134,47.9251
1306631725134,47.8766
1306631785134,47.7787
1306631845134,47.9222
1306631905134,47.7848
1306631965134,47.9015
1306632025134,47.8137
1306632085134,47.8645
1306632145134,47.7593
1306632205134,47.8162
1306632265134,47.8823
1306632325134,47.9522
1306632385134,47.8695
1306632445134,47.6771
1306632505134,47.7653
1306632565134,47.8491
1306632625134,47.8934
1306632685134,47.7326
1306632745134,47.8493
1306632805134,47.8612
1306632865134,47.7072
1306632925134,47.8846
1306632985134,47.9078
1306633045134,47.7630
1306633105134,47.9547
1306633165134,48.0307
1306633225134,47.9562
1306633285134,48.0102
1306633345134,47.7907
1306633405134,48.0331
1306633465134,48.2297
1306633525134,48.1877
1306633585134,47.9363
1306633645134,48.0027
1306633705134,48.0646
1306633765134,47.8900
1306633825134,47.8840
1306633885134,48.0080
1306633945134,47.8594
1306634005134,47.8415
1306634065134,47.9435
1306634125134,47.8367
1306634185134,47.8920
1306634245134,47.7444
1306634305134,47.9541
1306634365134,47.7791
1306634425145,47.8128
1306634485145,47.9840
1306634545145,47.8955
1306634605145,48.0676
1306634665145,47.9981
1306634725145,47.8381
1306634785145,47.8621
1306634845145,47.8921
1306634905145,47.9922
1306634965145,47.8343
1306635025145,47.7948
1306635085145,47.7885
1306635145145,47.7215
1306635205145,47.7755
1306635265145,47.5999
1306635325145,47.6848
1306635385145,47.7427
1306635445145,47.7501
1306635505145,47.7222
1306635565145,47.7134
1306635625145,47.6138
1306635685145,47.7983
1306635745145,47.6460
1306635805145,47.6660
1306635865145,47.5446
1306635925145,47.7043
1306635985145,47.7085
1306636045145,47.7237
1306636105145,47.7629
1306636165145,47.7271
1306636225145,47.7916
1306636285145,47.6374
1306636345145,47.5637
1306636405145,47.7440
1306636465145,47.6913
1306636525145,47.6305
1306636585145,47.6981
1306636645145,47.6568
1306636705145,47.7921
1306636765145,47.6307
1306636825145,47.9134
1306636885145,47.7410
1306636945145,47.8007
1306637005145,47.8598
1306637065145,47.7089
1306637125145,47.8478
1306637185145,47.8235
1306637245145,47.8765
1306637305145,47.9620
1306637365145,47.8416
1306637425145,47.8984
1306637485145,48.1040
1306637545145,47.7643
1306637605145,47.9162
1306637665145,47.8050
1306637725145,48.0328
1306637785145,47.8505
1306637845145,47.9464
1306637905145,48.1476
1306637965145,47.9022
1306638025155,47.9129
1306638085155,48.0132
1306638145155,47.9144
1306638205155,47.9859
1306638265155,48.2404
1306638325155,48.2298
1306638385155,48.0032
1306638445155,47.9986
1306638505155,48.0561
1306638565155,48.0720
1306638625155,47.9611
1306638685155,47.9169
1306638745155,47.9686
1306638805155,47.9345
1306638865155,47.9803
1306638925155,48.0171
1306638985155,48.1168
1306639045155,48.0385
1306639105155,47.9878
1306639165155,48.0486
1306639225155,48.1163
1306639285155,48.0256
1306639345155,48.0371
1306639405155,48.0553
1306639465155,47.9607
1306639525155,48.0727
1306639585155,48.0067
1306639645155,48.0445
1306639705155,48.0652
1306639765155,48.0389
1306639825155,48.1729
1306639885155,47.9699
1306639945155,47.9410
1306640005155,48.0696
1306640065155,47.9460
1306640125155,47.9502
1306640185155,47.8009
1306640245155,48.0536
1306640305155,47.9041
1306640365155,47.8712
1306640425155,47.8964
1306640485155,47.8407
1306640545155,47.9491
1306640605155,47.8526
1306640665155,47.9461
1306640725155,47.8797
1306640785155,47.9721
1306640845155,48.0407
1306640905155,48.0764
1306640965155,47.8285
1306641025155,47.8732
1306641085155,48.0016
1306641145155,47.9796
1306641205155,48.1592
1306641265155,47.9854
1306641325155,48.0264
1306641385155,48.0085
1306641445155,47.8940
1306641505155,48.0442
1306641565155,48.1758
1306641625165,48.1273
1306641685165,48.1135
1306641745165,48.1527
1306641805165,48.1559
1306641865165,48.0212
1306641925165,48.0896
1306641985165,48.1801
1306642045165,48.0806
1306642105165,48.1408
1306642165165,48.1174
1306642225165,48.2520
1306642285165,48.2128
1306642345165,48.2617
1306642405165,48.1572
1306642465165,48.1769
1306642525165,48.3029
1306642585165,48.2908
1306642645165,48.4613
1306642705165,48.3809
1306642765165,48.4591
1306642825165,48.3644
1306642885165,48.2571
1306642945165,48.1437
1306643005165,48.2917
1306643065165,48.2812
1306643125165,48.3806
1306643185165,48.3528
1306643245165,48.3656
1306643305165,48.2118
1306643365165,48.2041
1306643425165,48.3369
1306643485165,48.4945
1306643545165,48.4043
1306643605165,48.2652
1306643665165,48.2993
1306643725165,48.4585
1306643785165,48.2807
1306643845165,48.4368
1306643905165,48.4247
1306643965165,48.3582
1306644025165,48.4460
1306644085165,48.2279
1306644145165,48.4571
1306644205165,48.4985
1306644265165,48.4353
1306644325165,48.4722
1306644385165,48.4245
1306644445165,48.7119
1306644505165,48.4300
1306644565165,48.5535
1306644625165,48.5402
1306644685165,48.6297
1306644745165,48.4585
1306644805165,48.5881
1306644865165,48.5744
1306644925165,48.6119
1306644985165,48.5314
1306645045165,48.6482
1306645105165,48.6466
1306645165165,48.5564
1306645225174,48.6339
1306645285174,48.4481
1306645345174,48.5520
1306645405174,48.5796
1306645465174,48.4686
1306645525174,48.6358
1306645585174,48.4536
1306645645174,48.4654
1306645705174,48.4566
1306645765174,48.5415
1306645825174,48.6709
1306645885174,48.4658
1306645945174,48.4218
1306646005174,48.6030
1306646065174,48.4864
1306646125174,48.6011
1306646185174,48.6760
1306646245174,48.6477
1306646305174,48.6131
1306646365174,48.5679
1306646425174,48.4788
1306646485174,48.5840
1306646545174,48.6106
1306646605174,48.5328
1306646665174,48.6276
1306646725174,48.5181
1306646785174,48.5442
1306646845174,48.4786
1306646905174,48.6055
1306646965174,48.5768
1306647025174,48.5630
1306647085174,48.5852
1306647145174,48.6322
1306647205174,48.6411
1306647265174,48.5878
1306647325174,48.6064
1306647385174,48.6671
1306647445174,48.7669
1306647505174,48.6394
1306647565174,48.6261
1306647625174,48.5337
1306647685174,48.6048
1306647745174,48.4569
1306647805174,48.5632
1306647865174,48.6753
1306647925174,48.7553
1306647985174,48.5381
1306648045174,48.6436
1306648105174,48.5656
1306648165174,48.5790
1306648225174,48.5548
1306648285174,48.5178
1306648345174,48.5932
1306648405174,48.6551
1306648465174,48.6574
1306648525174,48.6032
1306648585174,48.5827
1306648645174,48.7235
1306648705174,48.7259
1306648765174,48.6413
1306648825184,48.7392
1306648885184,48.7140
1306648945184,48.7695
1306649005184,48.7594
1306649065184,48.7121
1306649125184,48.6709
1306649185184,48.7673
1306649245184,48.8016
1306649305184,48.4963
1306649365184,48.6518
1306649425184,48.7541
1306649485184,48.7582
1306649545184,48.8108
1306649605184,48.7092
1306649665184,48.5973
1306649725184,48.6243
1306649785184,48.7032
1306649845184,48.6660
1306649905184,48.6397
1306649965184,48.7215
1306650025184,48.6946
1306650085184,48.6791
1306650145184,48.6340
1306650205184,48.7098
1306650265184,48.7050
1306650325184,48.6999
1306650385184,48.7049
1306650445184,48.6445
1306650505184,48.8034
1306650565184,48.5862
1306650625184,48.7986
1306650685184,48.6583
1306650745184,48.6651
1306650805184,48.6524
1306650865184,48.5832
1306650925184,48.6436
1306650985184,48.6193
1306651045184,48.6984
1306651105184,48.6980
1306651165184,48.6094
1306651225184,48.5937
1306651285184,48.3875
1306651345184,48.5555
1306651405184,48.6009
1306651465184,48.6689
1306651525184,48.7765
1306651585184,48.5682
1306651645184,48.7246
1306651705184,48.7342
1306651765184,48.5968
1306651825184,48.6588
1306651885184,48.6050
1306651945184,48.7487
1306652005184,48.5386
1306652065184,48.8110
1306652125184,48.6577
1306652185184,48.6968
1306652245184,48.6099
1306652305184,48.7514
1306652365184,48.7061
1306652425193,48.7249
1306652485193,48.8078
1306652545193,48.7092
1306652605193,48.6296
1306652665193,48.7261
1306652725193,48.6008
1306652785193,48.7478
1306652845193,48.7493
1306652905193,48.7543
1306652965193,48.5739
1306653025193,48.7323
1306653085193,48.7811
1306653145193,48.6131
1306653205193,48.6982
1306653265193,48.7732
1306653325193,48.7063
1306653385193,48.6910
1306653445193,48.7291
1306653505193,48.6382
1306653565193,48.6086
1306653625193,48.7033
1306653685193,48.7436
1306653745193,48.6073
1306653805193,48.7712
1306653865193,48.6389
1306653925193,48.6141
1306653985193,48.7613
1306654045193,48.7678
1306654105193,48.8586
1306654165193,48.7948
1306654225193,48.6204
1306654285193,48.7410
1306654345193,48.8021
1306654405193,48.7785
1306654465193,48.7628
1306654525193,48.8356
1306654585193,48.7887
1306654645193,48.9251
1306654705193,48.7503
1306654765193,48.7586
1306654825193,48.7290
1306654885193,48.7578
1306654945193,48.8228
1306655005193,48.7243
1306655065193,48.6804
1306655125193,48.6217
1306655185193,48.7941
1306655245193,48.5586
1306655305193,48.6912
1306655365193,48.8212
1306655425193,48.5736
1306655485193,48.6517
1306655545193,48.7472
1306655605193,48.7282
1306655665193,48.8027
1306655725193,48.8127
1306655785193,48.7932
1306655845193,48.7205
1306655905193,48.8385
1306655965193,48.7757
1306656025203,48.8214
1306656085203,48.8471
1306656145203,48.7675
1306656205203,48.8138
1306656265203,49.1105
1306656325203,48.6029
1306656385203,48.8357
1306656445203,48.6752
1306656505203,48.7480
1306656565203,48.7218
1306656625203,48.7879
1306656685203,48.7289
1306656745203,48.8221
1306656805203,48.7858
1306656865203,48.9041
1306656925203,48.9402
1306656985203,48.9047
1306657045203,48.9184
1306657105203,48.7957
1306657165203,48.8452
1306657225203,48.9052
1306657285203,48.9623
1306657345203,49.0502
1306657405203,48.9437
1306657465203,48.9194
1306657525203,48.9891
1306657585203,49.0184
1306657645203,49.0092
1306657705203,49.0937
1306657765203,49.0901
1306657825203,49.0810
1306657885203,49.1840
1306657945203,49.0748
1306658005203,49.2314
1306658065203,49.3724
1306658125203,49.1576
1306658185203,49.3111
1306658245203,49.3434
1306658305203,49.2443
1306658365203,49.1836
1306658425203,49.2977
1306658485203,49.2418
1306658545203,49.2493
1306658605203,49.2997
1306658665203,49.2838
1306658725203,49.1040
1306658785203,49.3709
1306658845203,49.2801
1306658905203,49.2109
1306658965203,49.2839
1306659025203,49.3219
1306659085203,49.1550
1306659145203,49.2225
1306659205203,49.2796
1306659265203,49.1524
1306659325203,49.1217
1306659385203,49.0090
1306659445203,49.1541
1306659505203,49.2799
1306659565203,49.1308
1306659625212,49.1527
1306659685212,49.2260
1306659745212,49.1555
1306659805212,49.1088
1306659865212,49.1454
1306659925212,49.1979
1306659985212,49.1236
1306660045212,49.1037
1306660105212,49.2261
1306660165212,49.1287
1306660225212,49.0852
1306660285212,48.9976
1306660345212,49.1575
1306660405212,49.0481
1306660465212,49.2498
1306660525212,49.1468
1306660585212,49.1351
1306660645212,49.1658
1306660705212,49.0538
1306660765212,49.2056
1306660825212,49.1479
1306660885212,49.1571
1306660945212,49.2567
1306661005212,49.2560
1306661065212,49.1308
1306661125212,49.1105
1306661185212,49.2032
1306661245212,49.2002
1306661305212,49.1930
1306661365212,49.2488
1306661425212,49.0179
1306661485212,49.0175
1306661545212,48.9755
1306661605212,49.0490
1306661665212,49.2687
1306661725212,49.0090
1306661785212,49.0462
1306661845212,49.0795
1306661905212,49.1476
1306661965212,49.0585
1306662025212,49.0336
1306662085212,48.9611
1306662145212,48.9834
1306662205212,48.9653
1306662265212,49.0001
1306662325212,49.0778
1306662385212,49.1966
1306662445212,49.1731
1306662505212,49.1832
1306662565212,49.0871
1306662625212,49.1567
1306662685212,49.0783
1306662745212,49.1851
1306662805212,49.3244
1306662865212,49.1825
1306662925212,49.1259
1306662985212,49.0690
1306663045212,49.1206
1306663105212,49.1227
1306663165212,49.0991
1306663225221,49.0965
1306663285221,48.9343
1306663345221,49.0923
1306663405221,49.1141
1306663465221,49.0869
1306663525221,49.0962
1306663585221,49.1096
1306663645221,49.0183
1306663705221,49.1792
1306663765221,48.9846
1306663825221,49.1744
1306663885221,49.0562
1306663945221,49.2422
1306664005221,49.3318
1306664065221,49.2966
1306664125221,49.0600
1306664185221,49.0711
1306664245221,49.1165
1306664305221,49.0985
1306664365221,49.1118
1306664425221,49.1740
1306664485221,48.9376
1306664545221,49.0357
1306664605221,49.0269
1306664665221,49.0278
1306664725221,49.0948
1306664785221,49.1383
1306664845221,49.2020
1306664905221,49.1057
1306664965221,49.2120
1306665025221,49.1829
1306665085221,49.0961
1306665145221,48.9725
1306665205221,49.1283
1306665265221,49.3308
1306665325221,49.3315
1306665385221,49.3358
1306665445221,49.2985
1306665505221,49.4864
1306665565221,49.6787
1306665625221,49.7061
1306665685221,49.6963
1306665745221,49.5611
1306665805221,49.6743
1306665865221,49.7876
1306665925221,49.8472
1306665985221,50.0537
1306666045221,49.8249
1306666105221,49.7439
1306666165221,49.9135
1306666225221,49.8712
1306666285221,50.0554
1306666345221,50.1391
1306666405221,50.1212
1306666465221,50.1152
1306666525221,50.2860
1306666585221,50.2178
1306666645221,50.3076
1306666705221,50.3567
1306666765221,50.4119
1306666825230,50.3243
1306666885230,50.3594
1306666945230,50.0189
1306667005230,50.1946
1306667065230,50.0661
1306667125230,50.0750
1306667185230,49.9603
1306667245230,50.0090
1306667305230,49.8617
1306667365230,49.9124
1306667425230,49.7687
1306667485230,49.7725
1306667545230,49.8173
1306667605230,49.9640
1306667665230,49.7725
1306667725230,49.7210
1306667785230,49.8855
1306667845230,50.0175
1306667905230,49.8663
1306667965230,49.8041
1306668025230,50.1059
1306668085230,50.0888
1306668145230,50.1208
1306668205230,50.0897
1306668265230,50.0158
1306668325230,50.2404
1306668385230,50.1281
1306668445230,49.9870
1306668505230,50.1256
1306668565230,50.0509
1306668625230,50.0415
1306668685230,50.1142
1306668745230,50.0945
1306668805230,49.9058
1306668865230,49.9591
1306668925230,49.9674
1306668985230,49.8298
1306669045230,50.0978
1306669105230,50.2388
1306669165230,50.1730
1306669225230,50.3361
1306669285230,50.1742
1306669345230,50.1972
1306669405230,50.0152
1306669465230,50.0438
1306669525230,49.9876
1306669585230,49.9508
1306669645230,49.9470
1306669705230,49.7387
1306669765230,49.8435
1306669825230,49.7247
1306669885230,49.6101
1306669945230,49.6004
1306670005230,49.6393
1306670065230,49.5734
1306670125230,49.4830
1306670185230,49.6287
1306670245230,49.6106
1306670305230,49.4681
1306670365230,49.5244
1306670425240,49.5954
1306670485240,49.6709
1306670545240,49.6027
1306670605240,49.6782
1306670665240,49.5482
1306670725240,49.6594
1306670785240,49.5574
1306670845240,49.6852
1306670905240,49.6023
1306670965240,49.5800
1306671025240,49.5670
1306671085240,49.5876
1306671145240,49.5875
1306671205240,49.5790
1306671265240,49.6535
1306671325240,49.5710
1306671385240,49.5959
1306671445240,49.4854
1306671505240,49.5380
1306671565240,49.4901
1306671625240,49.3398
1306671685240,49.5710
1306671745240,49.3877
1306671805240,49.4949
1306671865240,49.3763
1306671925240,49.4169
1306671985240,49.2726
1306672045240,49.3278
1306672105240,49.3160
1306672165240,49.3473
1306672225240,49.2444
1306672285240,49.0878
1306672345240,49.0129
1306672405240,49.1542
1306672465240,49.0981
1306672525240,49.2061
1306672585240,49.1228
1306672645240,49.0840
1306672705240,49.2212
1306672765240,49.1057
1306672825240,49.1134
1306672885240,49.2427
1306672945240,49.0506
1306673005240,49.0484
1306673065240,49.0258
1306673125240,49.0967
1306673185240,48.9900
1306673245240,49.0087
1306673305240,49.1184
1306673365240,48.9952
1306673425240,49.1772
1306673485240,49.1529
1306673545240,49.0139
1306673605240,49.0406
1306673665240,48.9964
1306673725240,49.0181
1306673785240,48.9104
1306673845240,48.9465
1306673905240,49.0566
1306673965240,49.0447
1306674025249,48.9137
1306674085249,49.1035
1306674145249,49.0835
1306674205249,49.0544
1306674265249,49.0275
1306674325249,49.0246
1306674385249,48.9604
1306674445249,49.0499
1306674505249,49.0122
1306674565249,48.9423
1306674625249,49.1075
1306674685249,48.9100
1306674745249,49.0087
1306674805249,48.8562
1306674865249,48.9176
1306674925249,48.9398
1306674985249,49.0909
1306675045249,48.9057
1306675105249,48.9228
1306675165249,48.9278
1306675225249,49.0117
1306675285249,48.9774
1306675345249,48.8074
1306675405249,49.0395
1306676545249,48.8377
1306676605249,48.9691
1306676665249,48.9605
1306676725249,48.9763
1306676785249,48.8275
1306676845249,48.9797
1306676905249,49.0272
1306676965249,48.8062
1306677025249,48.8259
1306677085249,48.8697
1306677145249,48.7661
1306677205249,48.8795
1306677265249,48.7848
1306677325249,48.8516
1306677385249,48.8584
1306677445249,48.7887
1306677505249,48.8354
1306677565249,48.8700
1306677625258,48.8290
1306677685258,48.7242
1306677745258,48.7900
1306677805258,48.6529
1306677865258,48.6843
1306677925258,48.7182
1306677985258,48.6312
1306678045258,48.8355
1306678105258,48.7862
1306678165258,48.7125
1306678225258,48.7982
1306678285258,48.8719
1306678345258,48.7445
1306678405258,48.8148
1306678465258,48.8205
1306678525258,48.6189
1306678585258,48.9023
1306678645258,48.8458
1306678705258,48.8387
1306678765258,48.9616
1306678825258,48.8917
1306678885258,48.7790
1306678945258,48.7872
1306679005258,48.8834
1306679065258,48.6734
1306679125258,48.6693
1306679185258,48.7026
1306679245258,48.6682
1306679305258,48.8244
1306679365258,48.5418
1306679425258,48.7732
1306679485258,48.7786
1306679545258,48.5763
1306679605258,48.6802
1306679665258,48.7094
1306679725258,48.6636
1306679785258,48.7001
1306679845258,48.7566
1306679905258,48.7206
1306679965258,48.6509
1306680025258,48.7617
1306680085258,48.7429
1306680145258,48.7059
1306680205258,48.8370
1306680265258,48.6490
1306680325258,48.8139
1306680385258,48.7499
1306680445258,48.7899
1306680505258,48.8691
1306680565258,48.7599
1306680625258,48.8754
1306680685258,48.9287
1306680745258,48.6659
1306680805258,48.8556
1306680865258,48.8444
1306680925258,48.8483
1306680985258,48.9008
1306681045258,48.7586
1306681105258,48.9647
1306681165258,49.0374
1306681225268,48.8702
1306681285268,48.9216
1306681345268,48.9068
1306681405268,48.8742
1306681465268,48.9242
1306681525268,48.8812
1306681585268,49.0308
1306681645268,48.9573
1306681705268,48.8751
1306681765268,48.9640
1306681825268,48.8947
1306681885268,48.8756
1306681945268,48.9495
1306682005268,48.8714
1306682065268,49.0355
1306682125268,49.0512
1306682185268,48.9174
1306682245268,48.9342
1306682305268,48.9277
1306682365268,48.9116
1306682425268,48.8828
1306682485268,49.0280
1306682545268,48.9938
1306682605268,48.9287
1306682665268,48.9205
1306682725268,49.0414
1306682785268,49.0216
1306682845268,49.0551
1306682905268,49.0328
1306682965268,48.9115
1306683025268,49.0735
1306683085268,49.0618
1306683145268,49.0263
1306683205268,49.1486
1306683265268,49.1910
1306683325268,49.1594
1306683385268,49.1135
1306683445268,49.2013
1306683505268,49.2156
1306683565268,49.2073
1306683625268,49.2281
1306683685268,49.4408
1306683745268,49.3359
1306683805268,49.3093
1306683865268,49.3232
1306683925268,49.2735
1306683985268,49.4807
1306684045268,49.3011
1306684105268,49.3442
1306684165268,49.4731
1306684225268,49.4944
1306684285268,49.4468
1306684345268,49.3236
1306684405268,49.3876
1306684465268,49.2435
1306684525268,49.4227
1306684585268,49.3816
1306684645268,49.4768
1306684705268,49.4398
1306684765268,49.4106
1306684825277,49.2490
1306684885277,49.5578
1306684945277,49.3474
1306685005277,49.5281
1306685065277,49.3621
1306685125277,49.2914
1306685185277,49.3745
1306685245277,49.5155
1306685305277,49.3775
1306685365277,49.3537
1306685425277,49.5823
1306685485277,49.2534
1306685545277,49.2992
1306685605277,49.3974
1306685665277,49.3383
1306685725277,49.4011
1306685785277,49.5107
1306685845277,49.5059
1306685905277,49.4784
1306685965277,49.3720
1306686025277,49.5275
1306686085277,49.5167
1306686145277,49.3858
1306686205277,49.4084
1306686265277,49.4992
1306686325277,49.4154
1306686385277,49.4550
1306686445277,49.4169
1306686505277,49.3667
1306686565277,49.3852
1306686625277,49.4106
1306686685277,49.2898
1306686745277,49.3821
1306686805277,49.3799
1306686865277,49.4565
1306686925277,49.3205
1306686985277,49.2898
1306687045277,49.3196
1306687105277,49.4102
1306687165277,49.5252
1306687225277,49.4041
1306687285277,49.4138
1306687345277,49.3713
1306687405277,49.4457
1306687465277,49.3756
1306687525277,49.3549
1306687585277,49.2386
1306687645277,49.4176
1306687705277,49.2781
1306687765277,49.5476
1306687825277,49.2998
1306687885277,49.2239
1306687945277,49.2129
1306688005277,49.3608
1306688065277,49.4301
1306688125277,49.3251
1306688185277,49.2014
1306688245277,49.1695
1306688305277,49.3772
1306688365277,49.4493
1306688425287,49.3366
1306688485287,49.1627
1306688545287,49.3671
1306688605287,49.2094
1306688665287,49.2632
1306688725287,49.3731
1306688785287,49.4319
1306688845287,49.3152
1306688905287,49.2643
1306688965287,49.5286
1306689025287,49.4131
1306689085287,49.2854
1306689145287,49.2156
1306689205287,49.3095
1306689265287,49.3873
1306689325287,49.1798
1306689385287,49.4745
1306689445287,49.2578
1306689505287,49.3890
1306689565287,49.4394
1306689625287,49.3580
1306689685287,49.3394
1306689745287,49.4493
1306689805287,49.3338
1306689865287,49.3102
1306689925287,49.2126
1306689985287,49.1554
1306690045287,49.2225
1306690105287,49.2594
1306690165287,49.0873
1306690225287,49.0544
1306690285287,49.1561
1306690345287,49.3500
1306690405287,49.1882
1306690465287,49.3018
1306690525287,49.3079
1306690585287,49.3522
1306690645287,49.2478
1306690705287,49.2264
1306690765287,49.3830
1306690825287,49.3687
1306690885287,49.3685
1306690945287,49.2299
1306691005287,49.3176
1306691065287,49.2064
1306691125287,49.2724
1306691185287,49.3941
1306691245287,49.4257
1306691305287,49.3560
1306691365287,49.5222
1306691425287,49.4654
1306691485287,49.4580
1306691545287,49.4734
1306691605287,49.4480
1306691665287,49.4325
1306691725287,49.4435
1306691785287,49.4360
1306691845287,49.5105
1306691905287,49.5366
1306691965287,49.5491
1306692025297,49.4021
1306692085297,49.2916
1306692145297,49.3743
1306692205297,49.2280
1306692265297,49.3031
1306692325297,49.3566
1306692385297,49.3043
1306692445297,49.3209
1306692505297,49.8456
1306692565297,49.3239
1306692625297,49.4281
1306692685297,49.4093
1306692745297,49.4087
1306692805297,49.3126
1306692865297,49.1799
1306692925297,49.3353
1306692985297,49.2698
1306693045297,49.2839
1306693105297,49.4068
1306693165297,49.9938
1306693225297,49.2985
1306693285297,49.2070
1306693345297,49.2212
1306693405297,49.3672
1306693465297,49.2113
1306693525297,49.3389
1306693585297,49.3581
1306693645297,49.2283